Year,Month,Day,Hour,Minute,Value (Times are PST for temperature in C)
2012,06,27,13,43,17.70
2012,06,27,13,44,17.70
2012,06,27,13,45,17.80
2012,06,27,13,46,17.80
2012,06,27,13,47,17.90
2012,06,27,13,48,18.00
2012,06,27,13,49,18.10
2012,06,27,13,50,18.20
2012,06,27,13,51,18.40
2012,06,27,13,52,18.40
2012,06,27,13,53,18.30
2012,06,27,13,54,18.40
2012,06,27,13,55,18.50
2012,06,27,13,56,18.50
2012,06,27,13,57,18.50
2012,06,27,13,58,18.60
2012,06,27,13,59,18.70
2012,06,27,14,00,18.70
2012,06,27,14,01,18.70
2012,06,27,14,02,18.70
2012,06,27,14,03,18.70
2012,06,27,14,04,18.80
2012,06,27,14,05,18.80
2012,06,27,14,06,18.60
2012,06,27,14,07,18.40
2012,06,27,14,08,18.30
2012,06,27,14,09,18.20
2012,06,27,14,10,18.10
2012,06,27,14,11,18.20
2012,06,27,14,12,18.10
2012,06,27,14,13,18.20
2012,06,27,14,14,18.20
2012,06,27,14,15,18.30
2012,06,27,14,16,18.50
2012,06,27,14,17,18.70
2012,06,27,14,18,18.70
2012,06,27,14,19,18.80
2012,06,27,14,20,18.80
2012,06,27,14,21,18.90
2012,06,27,14,22,18.80
2012,06,27,14,23,18.60
2012,06,27,14,24,18.50
2012,06,27,14,25,18.50
2012,06,27,14,26,18.50
2012,06,27,14,27,18.50
2012,06,27,14,28,18.50
2012,06,27,14,29,18.60
2012,06,27,14,30,18.60
2012,06,27,14,31,18.60
2012,06,27,14,32,18.70
2012,06,27,14,33,18.60
2012,06,27,14,34,18.50
2012,06,27,14,35,18.40
2012,06,27,14,36,18.30
2012,06,27,14,37,18.20
2012,06,27,14,38,18.00
2012,06,27,14,39,17.70
2012,06,27,14,40,17.60
2012,06,27,14,41,17.60
2012,06,27,14,42,17.50
2012,06,27,14,43,17.60
2012,06,27,14,44,17.60
2012,06,27,14,45,17.70
2012,06,27,14,46,17.70
2012,06,27,14,47,17.80
2012,06,27,14,48,17.80
2012,06,27,14,49,18.00
2012,06,27,14,50,17.90
2012,06,27,14,51,17.90
2012,06,27,14,52,18.00
2012,06,27,14,53,18.00
2012,06,27,14,54,18.10
2012,06,27,14,55,18.10
2012,06,27,14,56,18.20
2012,06,27,14,57,18.10
2012,06,27,14,58,18.20
2012,06,27,14,59,18.20
2012,06,27,15,00,18.20
2012,06,27,15,01,18.40
2012,06,27,15,02,18.40
2012,06,27,15,03,18.50
2012,06,27,15,04,18.60
2012,06,27,15,05,18.60
2012,06,27,15,06,18.70
2012,06,27,15,07,18.60
2012,06,27,15,08,18.50
2012,06,27,15,09,18.40
2012,06,27,15,10,18.30
2012,06,27,15,11,18.30
2012,06,27,15,12,18.40
2012,06,27,15,13,18.40
2012,06,27,15,14,18.50
2012,06,27,15,15,18.50
2012,06,27,15,16,18.60
2012,06,27,15,17,18.60
2012,06,27,15,18,18.50
2012,06,27,15,19,18.50
2012,06,27,15,20,18.50
2012,06,27,15,21,18.40
2012,06,27,15,22,18.50
2012,06,27,15,23,18.50
2012,06,27,15,24,18.60
2012,06,27,15,25,18.60
2012,06,27,15,26,18.60
2012,06,27,15,27,18.60
2012,06,27,15,28,18.60
2012,06,27,15,29,18.60
2012,06,27,15,30,18.60
2012,06,27,15,31,18.50
2012,06,27,15,32,18.40
2012,06,27,15,33,18.40
2012,06,27,15,34,18.20
2012,06,27,15,35,18.20
2012,06,27,15,36,18.20
2012,06,27,15,37,18.20
2012,06,27,15,38,18.10
2012,06,27,15,39,18.10
2012,06,27,15,40,18.10
2012,06,27,15,41,18.10
2012,06,27,15,42,18.10
2012,06,27,15,43,18.20
2012,06,27,15,44,18.20
2012,06,27,15,45,18.30
2012,06,27,15,46,18.30
2012,06,27,15,47,18.50
2012,06,27,15,48,18.60
2012,06,27,15,49,18.70
2012,06,27,15,50,18.80
2012,06,27,15,51,18.80
2012,06,27,15,52,18.70
2012,06,27,15,53,18.60
2012,06,27,15,54,18.50
2012,06,27,15,55,18.60
2012,06,27,15,56,18.60
2012,06,27,15,57,18.70
2012,06,27,15,58,18.80
2012,06,27,15,59,18.80
2012,06,27,16,00,18.90
2012,06,27,16,01,18.90
2012,06,27,16,02,18.90
2012,06,27,16,03,18.90
2012,06,27,16,04,18.90
2012,06,27,16,05,19.00
2012,06,27,16,06,19.10
2012,06,27,16,07,19.10
2012,06,27,16,08,19.10
2012,06,27,16,09,19.10
2012,06,27,16,10,19.20
2012,06,27,16,11,19.20
2012,06,27,16,12,19.20
2012,06,27,16,13,19.20
2012,06,27,16,14,19.20
2012,06,27,16,15,19.20
2012,06,27,16,16,19.10
2012,06,27,16,17,19.00
2012,06,27,16,18,19.00
2012,06,27,16,19,19.00
2012,06,27,16,20,19.00
2012,06,27,16,21,19.00
2012,06,27,16,22,19.00
2012,06,27,16,23,18.90
2012,06,27,16,24,18.80
2012,06,27,16,25,18.80
2012,06,27,16,26,18.80
2012,06,27,16,27,18.80
2012,06,27,16,28,18.80
2012,06,27,16,29,18.80
2012,06,27,16,30,18.80
2012,06,27,16,31,18.90
2012,06,27,16,32,18.90
2012,06,27,16,33,18.90
2012,06,27,16,34,19.00
2012,06,27,16,35,19.10
2012,06,27,16,36,19.20
2012,06,27,16,37,19.20
2012,06,27,16,38,19.20
2012,06,27,16,39,19.20
2012,06,27,16,40,19.30
2012,06,27,16,41,19.30
2012,06,27,16,42,19.30
2012,06,27,16,43,19.10
2012,06,27,16,44,19.00
2012,06,27,16,45,18.90
2012,06,27,16,46,18.80
2012,06,27,16,47,18.70
2012,06,27,16,48,18.70
2012,06,27,16,49,18.60
2012,06,27,16,50,18.60
2012,06,27,16,51,18.60
2012,06,27,16,52,18.60
2012,06,27,16,53,18.50
2012,06,27,16,54,18.50
2012,06,27,16,55,18.40
2012,06,27,16,56,18.40
2012,06,27,16,57,18.40
2012,06,27,16,58,18.50
2012,06,27,16,59,18.40
2012,06,27,17,00,18.50
2012,06,27,17,01,18.50
2012,06,27,17,02,18.40
2012,06,27,17,03,18.50
2012,06,27,17,04,18.60
2012,06,27,17,05,18.80
2012,06,27,17,06,18.90
2012,06,27,17,07,19.00
2012,06,27,17,08,19.10
2012,06,27,17,09,19.20
2012,06,27,17,10,19.20
2012,06,27,17,11,19.20
2012,06,27,17,12,19.20
2012,06,27,17,13,19.20
2012,06,27,17,14,19.20
2012,06,27,17,15,19.10
2012,06,27,17,16,19.00
2012,06,27,17,17,19.00
2012,06,27,17,18,18.90
2012,06,27,17,19,18.70
2012,06,27,17,20,18.60
2012,06,27,17,21,18.60
2012,06,27,17,22,18.60
2012,06,27,17,23,18.70
2012,06,27,17,24,18.70
2012,06,27,17,25,18.60
2012,06,27,17,26,18.60
2012,06,27,17,27,18.70
2012,06,27,17,28,18.70
2012,06,27,17,29,18.60
2012,06,27,17,30,18.50
2012,06,27,17,31,18.40
2012,06,27,17,32,18.20
2012,06,27,17,33,18.20
2012,06,27,17,34,18.10
2012,06,27,17,35,18.10
2012,06,27,17,36,18.10
2012,06,27,17,37,18.10
2012,06,27,17,38,18.10
2012,06,27,17,39,18.10
2012,06,27,17,40,18.10
2012,06,27,17,41,18.20
2012,06,27,17,42,18.20
2012,06,27,17,43,18.20
2012,06,27,17,44,18.30
2012,06,27,17,45,18.30
2012,06,27,17,46,18.30
2012,06,27,17,47,18.30
2012,06,27,17,48,18.30
2012,06,27,17,49,18.30
2012,06,27,17,50,18.30
2012,06,27,17,51,18.30
2012,06,27,17,52,18.30
2012,06,27,17,53,18.40
2012,06,27,17,54,18.40
2012,06,27,17,55,18.50
2012,06,27,17,56,18.50
2012,06,27,17,57,18.50
2012,06,27,17,58,18.50
2012,06,27,17,59,18.50
2012,06,27,18,00,18.60
2012,06,27,18,01,18.60
2012,06,27,18,02,18.60
2012,06,27,18,03,18.60
2012,06,27,18,04,18.60
2012,06,27,18,05,18.60
2012,06,27,18,06,18.50
2012,06,27,18,07,18.60
2012,06,27,18,08,18.60
2012,06,27,18,09,18.60
2012,06,27,18,10,18.60
2012,06,27,18,11,18.70
2012,06,27,18,12,18.70
2012,06,27,18,13,18.70
2012,06,27,18,14,18.70
2012,06,27,18,15,18.70
2012,06,27,18,16,18.70
2012,06,27,18,17,18.70
2012,06,27,18,18,18.70
2012,06,27,18,19,18.70
2012,06,27,18,20,18.70
2012,06,27,18,21,18.70
2012,06,27,18,22,18.70
2012,06,27,18,23,18.70
2012,06,27,18,24,18.70
2012,06,27,18,25,18.70
2012,06,27,18,26,18.70
2012,06,27,18,27,18.80
2012,06,27,18,28,18.80
2012,06,27,18,29,18.80
2012,06,27,18,30,18.80
2012,06,27,18,31,18.80
2012,06,27,18,32,18.80
2012,06,27,18,33,18.80
2012,06,27,18,34,18.80
2012,06,27,18,35,18.80
2012,06,27,18,36,18.80
2012,06,27,18,37,18.90
2012,06,27,18,38,19.00
2012,06,27,18,39,19.00
2012,06,27,18,40,19.10
2012,06,27,18,41,19.10
2012,06,27,18,42,19.00
2012,06,27,18,43,19.00
2012,06,27,18,44,19.10
2012,06,27,18,45,19.00
2012,06,27,18,46,19.00
2012,06,27,18,47,19.00
2012,06,27,18,48,19.00
2012,06,27,18,49,18.90
2012,06,27,18,50,18.90
2012,06,27,18,51,18.90
2012,06,27,18,52,18.90
2012,06,27,18,53,18.90
2012,06,27,18,54,18.90
2012,06,27,18,55,18.90
2012,06,27,18,56,18.90
2012,06,27,18,57,18.90
2012,06,27,18,58,18.90
2012,06,27,18,59,18.90
2012,06,27,19,00,19.00
2012,06,27,19,01,19.00
2012,06,27,19,02,19.10
2012,06,27,19,03,19.00
2012,06,27,19,04,19.00
2012,06,27,19,05,18.90
2012,06,27,19,06,18.90
2012,06,27,19,07,18.90
2012,06,27,19,08,18.90
2012,06,27,19,09,18.90
2012,06,27,19,10,18.90
2012,06,27,19,11,18.90
2012,06,27,19,12,18.90
2012,06,27,19,13,18.90
2012,06,27,19,14,18.90
2012,06,27,19,15,18.90
2012,06,27,19,16,18.80
2012,06,27,19,17,18.80
2012,06,27,19,18,18.80
2012,06,27,19,19,18.80
2012,06,27,19,20,18.80
2012,06,27,19,21,18.80
2012,06,27,19,22,18.80
2012,06,27,19,23,18.80
2012,06,27,19,24,18.80
2012,06,27,19,25,18.70
2012,06,27,19,26,18.70
2012,06,27,19,27,18.80
2012,06,27,19,28,18.80
2012,06,27,19,29,18.80
2012,06,27,19,30,18.80
2012,06,27,19,31,18.70
2012,06,27,19,32,18.70
2012,06,27,19,33,18.70
2012,06,27,19,34,18.60
2012,06,27,19,35,18.60
2012,06,27,19,36,18.50
2012,06,27,19,37,18.40
2012,06,27,19,38,18.30
2012,06,27,19,39,18.20
2012,06,27,19,40,18.20
2012,06,27,19,41,18.10
2012,06,27,19,42,18.10
2012,06,27,19,43,18.10
2012,06,27,19,44,18.10
2012,06,27,19,45,18.10
2012,06,27,19,46,18.10
2012,06,27,19,47,18.10
2012,06,27,19,48,18.10
2012,06,27,19,49,18.10
2012,06,27,19,50,18.10
2012,06,27,19,51,18.10
2012,06,27,19,52,18.10
2012,06,27,19,53,18.10
2012,06,27,19,54,18.10
2012,06,27,19,55,18.10
2012,06,27,19,56,18.00
2012,06,27,19,57,18.00
2012,06,27,19,58,18.00
2012,06,27,19,59,18.00
2012,06,27,20,00,17.90
2012,06,27,20,01,17.90
2012,06,27,20,02,17.80
2012,06,27,20,03,17.80
2012,06,27,20,04,17.80
2012,06,27,20,05,17.80
2012,06,27,20,06,17.80
2012,06,27,20,07,17.80
2012,06,27,20,08,17.80
2012,06,27,20,09,17.80
2012,06,27,20,10,17.80
2012,06,27,20,11,17.80
2012,06,27,20,12,17.70
2012,06,27,20,13,17.70
2012,06,27,20,14,17.70
2012,06,27,20,15,17.70
2012,06,27,20,16,17.60
2012,06,27,20,17,17.60
2012,06,27,20,18,17.60
2012,06,27,20,19,17.60
2012,06,27,20,20,17.60
2012,06,27,20,21,17.50
2012,06,27,20,22,17.50
2012,06,27,20,23,17.50
2012,06,27,20,24,17.50
2012,06,27,20,25,17.40
2012,06,27,20,26,17.40
2012,06,27,20,27,17.40
2012,06,27,20,28,17.40
2012,06,27,20,29,17.40
2012,06,27,20,30,17.30
2012,06,27,20,31,17.30
2012,06,27,20,32,17.30
2012,06,27,20,33,17.30
2012,06,27,20,34,17.30
2012,06,27,20,35,17.30
2012,06,27,20,36,17.30
2012,06,27,20,37,17.30
2012,06,27,20,38,17.20
2012,06,27,20,39,17.20
2012,06,27,20,40,17.20
2012,06,27,20,41,17.20
2012,06,27,20,42,17.20
2012,06,27,20,43,17.20
2012,06,27,20,44,17.10
2012,06,27,20,45,17.10
2012,06,27,20,46,17.10
2012,06,27,20,47,17.00
2012,06,27,20,48,17.00
2012,06,27,20,49,16.90
2012,06,27,20,50,16.90
2012,06,27,20,51,16.90
2012,06,27,20,52,16.80
2012,06,27,20,53,16.80
2012,06,27,20,54,16.70
2012,06,27,20,55,16.70
2012,06,27,20,56,16.60
2012,06,27,20,57,16.60
2012,06,27,20,58,16.60
2012,06,27,20,59,16.50
2012,06,27,21,00,16.40
2012,06,27,21,01,16.40
2012,06,27,21,02,16.30
2012,06,27,21,03,16.30
2012,06,27,21,04,16.20
2012,06,27,21,05,16.20
2012,06,27,21,06,16.20
2012,06,27,21,07,16.10
2012,06,27,21,08,16.10
2012,06,27,21,09,16.10
2012,06,27,21,10,16.10
2012,06,27,21,11,16.10
2012,06,27,21,12,16.10
2012,06,27,21,13,16.10
2012,06,27,21,14,16.10
2012,06,27,21,15,16.00
2012,06,27,21,16,16.00
2012,06,27,21,17,16.00
2012,06,27,21,18,15.90
2012,06,27,21,19,15.90
2012,06,27,21,20,15.90
2012,06,27,21,21,16.00
2012,06,27,21,22,16.00
2012,06,27,21,23,16.00
2012,06,27,21,24,16.00
2012,06,27,21,25,16.00
2012,06,27,21,26,15.90
2012,06,27,21,27,15.90
2012,06,27,21,28,15.90
2012,06,27,21,29,15.90
2012,06,27,21,30,15.90
2012,06,27,21,31,15.90
2012,06,27,21,32,15.90
2012,06,27,21,33,15.90
2012,06,27,21,34,15.80
2012,06,27,21,35,15.80
2012,06,27,21,36,15.80
2012,06,27,21,37,15.80
2012,06,27,21,38,15.70
2012,06,27,21,39,15.70
2012,06,27,21,40,15.60
2012,06,27,21,41,15.50
2012,06,27,21,42,15.50
2012,06,27,21,43,15.40
2012,06,27,21,44,15.30
2012,06,27,21,45,15.20
2012,06,27,21,46,15.20
2012,06,27,21,47,15.10
2012,06,27,21,48,15.00
2012,06,27,21,49,15.00
2012,06,27,21,50,15.00
2012,06,27,21,51,15.00
2012,06,27,21,52,15.00
2012,06,27,21,53,15.00
2012,06,27,21,54,15.00
2012,06,27,21,55,15.00
2012,06,27,21,56,14.90
2012,06,27,21,57,14.80
2012,06,27,21,58,14.80
2012,06,27,21,59,14.80
2012,06,27,22,00,14.80
2012,06,27,22,01,14.80
2012,06,27,22,02,14.70
2012,06,27,22,03,14.70
2012,06,27,22,04,14.70
2012,06,27,22,05,14.70
2012,06,27,22,06,14.60
2012,06,27,22,07,14.60
2012,06,27,22,08,14.60
2012,06,27,22,09,14.60
2012,06,27,22,10,14.60
2012,06,27,22,11,14.60
2012,06,27,22,12,14.60
2012,06,27,22,13,14.60
2012,06,27,22,14,14.50
2012,06,27,22,15,14.50
2012,06,27,22,16,14.50
2012,06,27,22,17,14.50
2012,06,27,22,18,14.50
2012,06,27,22,19,14.50
2012,06,27,22,20,14.50
2012,06,27,22,21,14.40
2012,06,27,22,22,14.40
2012,06,27,22,23,14.40
2012,06,27,22,24,14.40
2012,06,27,22,25,14.40
2012,06,27,22,26,14.50
2012,06,27,22,27,14.50
2012,06,27,22,28,14.50
2012,06,27,22,29,14.50
2012,06,27,22,30,14.50
2012,06,27,22,31,14.40
2012,06,27,22,32,14.40
2012,06,27,22,33,14.40
2012,06,27,22,34,14.40
2012,06,27,22,35,14.40
2012,06,27,22,36,14.40
2012,06,27,22,37,14.40
2012,06,27,22,38,14.40
2012,06,27,22,39,14.40
2012,06,27,22,40,14.40
2012,06,27,22,41,14.40
2012,06,27,22,42,14.40
2012,06,27,22,43,14.40
2012,06,27,22,44,14.40
2012,06,27,22,45,14.40
2012,06,27,22,46,14.40
2012,06,27,22,47,14.40
2012,06,27,22,48,14.40
2012,06,27,22,49,14.30
2012,06,27,22,50,14.30
2012,06,27,22,51,14.20
2012,06,27,22,52,14.20
2012,06,27,22,53,14.10
2012,06,27,22,54,14.00
2012,06,27,22,55,14.00
2012,06,27,22,56,13.90
2012,06,27,22,57,13.80
2012,06,27,22,58,13.80
2012,06,27,22,59,13.80
2012,06,27,23,00,13.70
2012,06,27,23,01,13.70
2012,06,27,23,02,13.70
2012,06,27,23,03,13.60
2012,06,27,23,04,13.60
2012,06,27,23,05,13.60
2012,06,27,23,06,13.60
2012,06,27,23,07,13.60
2012,06,27,23,08,13.60
2012,06,27,23,09,13.60
2012,06,27,23,10,13.60
2012,06,27,23,11,13.60
2012,06,27,23,12,13.60
2012,06,27,23,13,13.60
2012,06,27,23,14,13.60
2012,06,27,23,15,13.60
2012,06,27,23,16,13.50
2012,06,27,23,17,13.50
2012,06,27,23,18,13.40
2012,06,27,23,19,13.40
2012,06,27,23,20,13.40
2012,06,27,23,21,13.30
2012,06,27,23,22,13.30
2012,06,27,23,23,13.30
2012,06,27,23,24,13.30
2012,06,27,23,25,13.20
2012,06,27,23,26,13.20
2012,06,27,23,27,13.20
2012,06,27,23,28,13.20
2012,06,27,23,29,13.20
2012,06,27,23,30,13.20
2012,06,27,23,31,13.20
2012,06,27,23,32,13.20
2012,06,27,23,33,13.30
2012,06,27,23,34,13.30
2012,06,27,23,35,13.30
2012,06,27,23,36,13.30
2012,06,27,23,37,13.30
2012,06,27,23,38,13.30
2012,06,27,23,39,13.30
2012,06,27,23,40,13.30
2012,06,27,23,41,13.30
2012,06,27,23,42,13.30
2012,06,27,23,43,13.30
2012,06,27,23,44,13.30
2012,06,27,23,45,13.30
2012,06,27,23,46,13.30
2012,06,27,23,47,13.30
2012,06,27,23,48,13.30
2012,06,27,23,49,13.30
2012,06,27,23,50,13.30
2012,06,27,23,51,13.30
2012,06,27,23,52,13.30
2012,06,27,23,53,13.30
2012,06,27,23,54,13.30
2012,06,27,23,55,13.30
2012,06,27,23,56,13.30
2012,06,27,23,57,13.30
2012,06,27,23,58,13.30
2012,06,27,23,59,13.30
